Location: Warszawa
(52.2500°N, 21.0000°E)
Time: 19:42:04
(UTC+02:00)

A-11 Canister half - Pass Details

Date: 13 February 2023
Orbit: 1526 x 1682 km, 47.3° (Epoch: 27 March)

Event Time Altitude Azimuth Distance (km) Brightness Sun altitude
Exits shadow 02:29:15 33° 134° (SE) 2,335 9.9 -40.0°
Drops below altitude 10° 02:36:30 10° 83° (E) 3,702 11.6 -39.0°
Sets 02:39:54 0° 75° (ENE) 4,695 12.4 -38.6°
